User: anonymous   Login
Location: ČR
(50.0000°N, 15.0000°E)
Time: 20:08:25
(UTC+00:00)
Language:

Explorer 7 - Orbit

View from above orbital plane
View from above orbital plane
View from above satellite
View from above satellite

Ground track
Ground track

The orbit data is extracted from the following two-line orbital elements,

1 00022U 59009A   22275.59976172  .00003380  00000-0  26031-3 0  9990
2 00022  50.2817 129.5479 0133630 221.0431 138.0402 14.97497419595681
Epoch (UTC): 02 October 2022 14:23:39
Eccentricity: 0.0133630
inclination: 50.2817°
perigee height: 482 km
apogee height: 667 km
right ascension of ascending node: 129.5479°
argument of perigee: 221.0431°
revolutions per day: 14.97497419
mean anomaly at epoch: 138.0402°
orbit number at epoch: 59568

The dashed part of the orbit path shows where the satellite is in the earth's shadow,  

DLR